FW8013 Weather Reports


time (UTC)temp
F
wind
direction
speed
knots
gust
knots
rain 1hr
in
rain 24hr
in
rain mn
in
humidity
%
barometer
mb
20260901054603 69 0 0.0 1.7 0.00 0.00 0.00 97 1017.7
20260901053054 69 0 0.0 0.0 0.00 0.00 0.00 97 1018.0
20260901051603 70 0 0.0 0.0 0.00 0.00 0.00 96 1018.0
20260901050059 70 0 0.0 0.0 0.00 0.00 0.00 96 1018.1
20260901044601 70 0 0.0 0.0 0.00 0.00 0.00 96 1017.9
20260901043104 70 0 0.0 0.0 0.00 0.00 0.00 96 1018.0
20260901041600 70 230 0.0 1.7 0.00 0.00 0.00 96 1018.1
20260901040114 70 0 0.0 2.6 0.00 0.00 0.00 96 1018.1
20260901034556 70 0 0.0 0.0 0.00 0.00 0.00 96 1018.2
20260901033101 70 0 0.0 0.9 0.00 0.00 0.00 96 1018.4
20260901031559 70 0 0.0 0.0 0.00 0.00 0.00 96 1018.4
20260901030058 70 0 0.0 0.0 0.00 0.00 0.00 95 1018.7
20260901024557 70 0 0.0 0.0 0.00 0.00 0.00 95 1018.7
20260901023054 70 0 0.0 0.0 0.00 0.00 0.00 95 1018.8
20260901021601 70 0 0.0 0.0 0.00 0.00 0.00 95 1019.0
20260901014601 70 0 0.0 0.0 0.00 0.00 0.00 94 1018.9
20260901013108 70 0 0.0 0.0 0.00 0.00 0.00 94 1018.9
20260901011558 70 0 0.0 0.0 0.00 0.00 0.00 94 1018.9
20260901010108 70 0 0.0 0.0 0.00 0.00 0.00 94 1019.0
20260901004601 70 0 0.0 0.0 0.00 0.00 0.00 94 1018.8
20260901003103 71 0 0.0 0.0 0.00 0.00 0.00 93 1018.8
20260901001559 71 0 0.0 0.0 0.00 0.00 0.00 92 1018.6
20260901000100 71 0 0.0 0.0 0.00 0.00 0.00 92 1018.5
20260831234601 72 0 0.0 0.0 0.00 0.00 0.00 91 1018.5
20260831233104 72 0 0.0 0.0 0.00 0.00 0.00 90 1018.7
20260831231604 73 0 0.0 0.0 0.00 0.00 0.00 90 1018.8
20260831230100 73 0 0.0 0.0 0.00 0.00 0.00 88 1018.9
20260831224601 74 0 0.0 0.0 0.00 0.00 0.00 88 1019.1
20260831223100 74 0 0.0 0.0 0.00 0.00 0.00 87 1019.1
20260831221624 74 0 0.0 0.0 0.00 0.00 0.00 86 1019.1
20260831220103 74 0 0.0 0.0 0.00 0.00 0.00 87 1019.2
20260831214601 74 0 0.0 0.0 0.00 0.00 0.00 87 1019.4
20260831213059 74 0 0.0 0.0 0.00 0.00 0.00 85 1019.3
20260831211556 74 0 0.0 0.9 0.00 0.00 0.00 84 1019.5
20260831204556 75 0 0.0 0.9 0.00 0.00 0.00 82 1019.7
20260831203134 75 0 0.0 0.9 0.00 0.00 0.00 83 1019.7
20260831201605 74 193 0.0 1.7 0.00 0.00 0.00 85 1019.8
20260831200137 74 0 0.0 1.7 0.00 0.00 0.00 86 1020.0
20260831194612 74 234 0.0 0.0 0.00 0.00 0.00 87 1020.1
20260831193059 74 0 0.0 0.9 0.00 0.00 0.00 85 1020.3
20260831191600 75 0 0.9 2.6 0.00 0.00 0.00 82 1020.4
20260831184602 75 0 0.0 1.7 0.00 0.00 0.00 80 1020.7
20260831183104 75 0 0.0 0.9 0.00 0.00 0.00 78 1020.7
20260831181602 76 0 0.0 1.7 0.00 0.00 0.00 78 1020.7
20260831180116 76 0 0.0 2.6 0.00 0.00 0.00 76 1020.6
20260831174604 76 0 0.0 0.9 0.00 0.00 0.00 78 1020.7
20260831173106 76 0 0.0 0.9 0.00 0.00 0.00 75 1020.7
20260831171605 76 0 0.0 2.6 0.00 0.00 0.00 75 1020.7
20260831170121 76 0 0.0 2.6 0.00 0.00 0.00 75 1020.9
20260831164558 76 96 0.9 4.3 0.00 0.00 0.00 77 1020.6
20260831163102 75 90 0.0 6.1 0.00 0.00 0.00 77 1020.7
20260831161623 74 82 0.0 5.2 0.00 0.00 0.00 79 1020.7
20260831160103 73 101 0.0 3.5 0.00 0.00 0.00 80 1020.7
20260831154624 73 0 0.0 1.7 0.00 0.00 0.00 80 1020.8
20260831153058 73 81 0.9 3.5 0.00 0.00 0.00 81 1020.9
20260831151601 73 0 0.0 2.6 0.00 0.00 0.00 82 1021.0
20260831150101 72 0 0.0 2.6 0.00 0.00 0.00 82 1021.1
20260831144601 72 0 0.0 0.9 0.00 0.00 0.00 83 1021.3
20260831143059 71 0 0.9 3.5 0.00 0.00 0.00 84 1021.3
20260831141607 71 0 0.0 0.0 0.00 0.00 0.00 86 1021.1
20260831134557 70 0 0.0 0.0 0.00 0.00 0.00 88 1021.0
20260831133103 69 0 0.0 2.6 0.00 0.00 0.00 87 1020.8
20260831131608 69 0 0.0 1.7 0.00 0.00 0.00 90 1021.0
20260831124559 67 0 0.0 0.0 0.00 0.00 0.00 93 1020.8
20260831123054 67 0 0.0 0.0 0.00 0.00 0.00 93 1020.7
20260831121559 66 0 0.0 0.0 0.00 0.00 0.00 95 1020.8
20260831120134 66 0 0.0 0.0 0.00 0.00 0.00 96 1020.7
20260831114559 65 0 0.0 0.0 0.00 0.00 0.00 96 1020.6
20260831113104 65 0 0.0 0.0 0.00 0.00 0.00 96 1020.3
20260831111600 65 0 0.0 0.0 0.00 0.00 0.00 96 1020.2
20260831110105 64 0 0.0 0.0 0.00 0.00 0.00 96 1019.8
20260831104604 64 0 0.0 0.0 0.00 0.00 0.00 96 1020.1
20260831103054 64 0 0.0 0.0 0.00 0.00 0.00 96 1020.0
20260831101602 64 0 0.0 0.0 0.00 0.00 0.00 96 1020.0
20260831100109 64 0 0.0 0.0 0.00 0.00 0.00 95 1019.8
20260831094555 64 0 0.0 0.0 0.00 0.00 0.00 95 1019.9
20260831093056 64 0 0.0 0.0 0.00 0.00 0.00 95 1019.8
20260831091558 65 0 0.0 2.6 0.00 0.00 0.00 95 1019.6
20260831090105 65 0 0.0 0.0 0.00 0.00 0.00 94 1019.7
20260831084601 66 0 0.0 0.0 0.00 0.00 0.00 93 1019.6
20260831083056 66 0 0.0 0.0 0.00 0.00 0.00 93 1019.6
20260831081600 67 0 0.0 0.0 0.00 0.00 0.00 92 1019.8
20260831080058 67 0 0.0 0.0 0.00 0.00 0.00 91 1019.9
20260831074557 68 0 0.0 0.0 0.00 0.00 0.00 90 1019.8
20260831073101 68 0 0.0 0.0 0.00 0.00 0.00 90 1019.7
20260831071614 68 0 0.0 0.0 0.00 0.00 0.00 90 1019.7
20260831070109 68 0 0.0 0.0 0.00 0.00 0.00 91 1019.5
20260831064604 68 0 0.0 0.9 0.00 0.00 0.00 93 1019.5
20260831063101 69 0 0.0 1.7 0.00 0.00 0.00 94 1019.5
20260831061610 69 0 0.0 0.0 0.00 0.00 0.00 95 1019.6
20260831060111 69 0 0.0 0.0 0.00 0.00 0.00 96 1019.9